When you browse on this site, cookies collect data to enhance your experience and personalize the content and advertising you see.
Visit our Privacy Policy to learn more. By continuing to use the site, you agree to this use of cookies and data.

Previsão horária em Lisburn

Hoje, 3 Julho, Sexta-feira

Tempo Temperatura Precipitação Vento Pressão Humidade
00:00 +10°C° 0 mm 4 m/s 754 mmHg 96%
01:00 +10°C° 0.6 mm 5 m/s 753 mmHg 96%
02:00 +10°C° 0.6 mm 5 m/s 752 mmHg 96%
03:00 +10°C° 0.6 mm 6 m/s 751 mmHg 96%
04:00 +10°C° 0.3 mm 7 m/s 751 mmHg 96%
05:00 +10°C° 0.3 mm 7 m/s 750 mmHg 96%
06:00 +10°C° 0 mm 7 m/s 750 mmHg 95%
07:00 +11°C° 0.4 mm 7 m/s 749 mmHg 95%
08:00 +13°C° 0.4 mm 6 m/s 749 mmHg 96%
09:00 +13°C° 0.4 mm 6 m/s 749 mmHg 96%
10:00 +14°C° 0.1 mm 7 m/s 749 mmHg 95%
11:00 +15°C° 0.1 mm 7 m/s 749 mmHg 94%
12:00 +15°C° 0 mm 6 m/s 749 mmHg 94%
13:00 +15°C° 0.7 mm 6 m/s 749 mmHg 95%
14:00 +15°C° 0.7 mm 5 m/s 749 mmHg 96%
15:00 +14°C° 0.7 mm 5 m/s 749 mmHg 96%
16:00 +14°C° 0.6 mm 4 m/s 749 mmHg 97%
17:00 +14°C° 0.6 mm 2 m/s 749 mmHg 97%
18:00 +13°C° 0.6 mm 1 m/s 750 mmHg 97%
19:00 +13°C° 0.1 mm 1 m/s 750 mmHg 97%
20:00 +13°C° 0.1 mm 1 m/s 750 mmHg 97%
21:00 +13°C° 0.1 mm 1 m/s 750 mmHg 97%
22:00 +13°C° 0.1 mm 1 m/s 750 mmHg 98%
23:00 +13°C° 0.1 mm 1 m/s 750 mmHg 98%

Amanhã, 4 Julho, Sábado

Tempo Temperatura Precipitação Vento Pressão Humidade
00:00 +13°C° 0.1 mm 1 m/s 749 mmHg 98%
01:00 +13°C° 0.2 mm 1 m/s 749 mmHg 98%
02:00 +13°C° 0.2 mm 1 m/s 749 mmHg 98%
03:00 +12°C° 0.2 mm 0 m/s 749 mmHg 98%
04:00 +12°C° 0.1 mm 0 m/s 749 mmHg 98%
05:00 +14°C° 0.1 mm 1 m/s 749 mmHg 98%
06:00 +14°C° 0.1 mm 1 m/s 749 mmHg 98%
07:00 +14°C° 0.2 mm 1 m/s 749 mmHg 98%
08:00 +15°C° 0.2 mm 1 m/s 749 mmHg 98%
09:00 +15°C° 0.2 mm 2 m/s 749 mmHg 98%
10:00 +15°C° 0.3 mm 2 m/s 750 mmHg 97%
11:00 +15°C° 0.3 mm 2 m/s 750 mmHg 97%
12:00 +15°C° 0.3 mm 2 m/s 750 mmHg 96%
13:00 +15°C° 0.1 mm 2 m/s 750 mmHg 96%
14:00 +15°C° 0.1 mm 2 m/s 750 mmHg 95%
15:00 +16°C° 0.1 mm 2 m/s 750 mmHg 94%
16:00 +16°C° 0.1 mm 3 m/s 750 mmHg 94%
17:00 +16°C° 0.1 mm 3 m/s 749 mmHg 94%
18:00 +17°C° 0.1 mm 4 m/s 749 mmHg 94%
19:00 +15°C° 0.2 mm 4 m/s 748 mmHg 94%
20:00 +15°C° 0.2 mm 5 m/s 747 mmHg 93%
21:00 +15°C° 0.2 mm 6 m/s 746 mmHg 93%
22:00 +15°C° 0.4 mm 7 m/s 745 mmHg 94%
23:00 +15°C° 0.4 mm 8 m/s 744 mmHg 94%

Depois de amanhã, 5 Julho, Domingo

Tempo Temperatura Precipitação Vento Pressão Humidade
00:00 +16°C° 0.4 mm 9 m/s 743 mmHg 95%
01:00 +13°C° 0.3 mm 9 m/s 743 mmHg 93%
02:00 +12°C° 0.3 mm 9 m/s 744 mmHg 91%
03:00 +11°C° 0.3 mm 10 m/s 744 mmHg 89%
04:00 +10°C° 0.1 mm 9 m/s 745 mmHg 88%
05:00 +10°C° 0.1 mm 8 m/s 746 mmHg 88%
06:00 +10°C° 0.1 mm 8 m/s 747 mmHg 87%
07:00 +10°C° 0.1 mm 8 m/s 747 mmHg 84%
08:00 +11°C° 0.1 mm 8 m/s 748 mmHg 80%
09:00 +12°C° 0.1 mm 8 m/s 748 mmHg 77%
10:00 +12°C° 0.3 mm 8 m/s 748 mmHg 77%
11:00 +12°C° 0.3 mm 9 m/s 748 mmHg 77%
12:00 +12°C° 0.3 mm 9 m/s 748 mmHg 78%
13:00 +12°C° 0.5 mm 9 m/s 748 mmHg 80%
14:00 +12°C° 0.5 mm 8 m/s 748 mmHg 83%
15:00 +11°C° 0.5 mm 8 m/s 748 mmHg 86%
16:00 +11°C° 0.4 mm 8 m/s 748 mmHg 87%
17:00 +11°C° 0.4 mm 7 m/s 748 mmHg 88%
18:00 +11°C° 0.4 mm 7 m/s 748 mmHg 89%
19:00 +10°C° 0.1 mm 7 m/s 749 mmHg 89%
20:00 +10°C° 0.1 mm 7 m/s 750 mmHg 89%
21:00 +9°C° 0.1 mm 7 m/s 751 mmHg 89%
22:00 +9°C° 0 mm 7 m/s 751 mmHg 90%
23:00 +9°C° 0 mm 7 m/s 752 mmHg 90%

6 Julho, Segunda-feira

Tempo Temperatura Precipitação Vento Pressão Humidade
00:00 +8°C° 0 mm 7 m/s 753 mmHg 90%
01:00 +8°C° 0 mm 7 m/s 753 mmHg 88%
02:00 +8°C° 0 mm 7 m/s 754 mmHg 86%
03:00 +7°C° 0 mm 8 m/s 754 mmHg 85%
04:00 +9°C° 0 mm 8 m/s 755 mmHg 85%
05:00 +9°C° 0 mm 7 m/s 756 mmHg 85%
06:00 +10°C° 0 mm 7 m/s 757 mmHg 85%
07:00 +11°C° 0.1 mm 7 m/s 757 mmHg 83%
08:00 +12°C° 0.1 mm 7 m/s 758 mmHg 80%
09:00 +14°C° 0.1 mm 6 m/s 759 mmHg 77%
10:00 +14°C° 0.1 mm 6 m/s 760 mmHg 75%
11:00 +15°C° 0.1 mm 6 m/s 760 mmHg 72%
12:00 +16°C° 0.1 mm 6 m/s 761 mmHg 69%
13:00 +16°C° 0.2 mm 6 m/s 761 mmHg 69%
14:00 +16°C° 0.2 mm 6 m/s 762 mmHg 69%
15:00 +16°C° 0.2 mm 6 m/s 762 mmHg 70%
16:00 +15°C° 0 mm 6 m/s 763 mmHg 71%
17:00 +15°C° 0 mm 6 m/s 763 mmHg 71%
18:00 +14°C° 0 mm 5 m/s 763 mmHg 72%
19:00 +12°C° 0 mm 4 m/s 763 mmHg 78%
20:00 +11°C° 0 mm 3 m/s 764 mmHg 84%
21:00 +9°C° 0 mm 2 m/s 764 mmHg 90%
22:00 +9°C° 0 mm 3 m/s 764 mmHg 91%
23:00 +8°C° 0 mm 3 m/s 764 mmHg 93%

7 Julho, Terça-feira

Tempo Temperatura Precipitação Vento Pressão Humidade
00:00 +8°C° 0 mm 3 m/s 764 mmHg 94%
01:00 +8°C° 0 mm 3 m/s 764 mmHg 95%
02:00 +8°C° 0 mm 3 m/s 763 mmHg 95%
03:00 +7°C° 0 mm 3 m/s 763 mmHg 96%
04:00 +8°C° 0 mm 3 m/s 763 mmHg 95%
05:00 +9°C° 0 mm 3 m/s 763 mmHg 94%
06:00 +9°C° 0 mm 3 m/s 763 mmHg 93%
07:00 +11°C° 0 mm 3 m/s 763 mmHg 88%
08:00 +12°C° 0 mm 3 m/s 763 mmHg 83%
09:00 +13°C° 0 mm 3 m/s 763 mmHg 78%
10:00 +12°C° 0.2 mm 3 m/s 763 mmHg 83%
11:00 +12°C° 0.2 mm 3 m/s 763 mmHg 88%
12:00 +11°C° 0.2 mm 3 m/s 762 mmHg 92%
13:00 +11°C° 0.6 mm 3 m/s 762 mmHg 94%
14:00 +11°C° 0.6 mm 4 m/s 762 mmHg 95%
15:00 +11°C° 0.6 mm 4 m/s 761 mmHg 96%
16:00 +11°C° 0.8 mm 4 m/s 761 mmHg 97%
17:00 +11°C° 0.8 mm 4 m/s 760 mmHg 97%
18:00 +10°C° 0.8 mm 5 m/s 759 mmHg 97%
19:00 +10°C° 1.2 mm 5 m/s 759 mmHg 98%
20:00 +12°C° 1.2 mm 4 m/s 759 mmHg 98%
21:00 +12°C° 1.2 mm 4 m/s 758 mmHg 98%
22:00 +13°C° 0.2 mm 5 m/s 758 mmHg 98%
23:00 +14°C° 0.2 mm 5 m/s 757 mmHg 97%

8 Julho, Quarta-feira

Tempo Temperatura Precipitação Vento Pressão Humidade
00:00 +15°C° 0.2 mm 6 m/s 757 mmHg 97%
01:00 +15°C° 0.4 mm 6 m/s 756 mmHg 96%
02:00 +15°C° 0.4 mm 6 m/s 756 mmHg 96%
03:00 +15°C° 0.4 mm 7 m/s 755 mmHg 96%
04:00 +15°C° 0.2 mm 7 m/s 755 mmHg 96%
05:00 +15°C° 0.2 mm 7 m/s 755 mmHg 95%
06:00 +15°C° 0.2 mm 7 m/s 754 mmHg 95%
07:00 +15°C° 0.1 mm 7 m/s 754 mmHg 95%
08:00 +15°C° 0.1 mm 7 m/s 754 mmHg 95%
09:00 +15°C° 0.1 mm 7 m/s 754 mmHg 95%
10:00 +15°C° 0.1 mm 7 m/s 754 mmHg 95%
11:00 +16°C° 0.1 mm 7 m/s 754 mmHg 94%
12:00 +16°C° 0.1 mm 7 m/s 754 mmHg 94%
13:00 +16°C° 0.1 mm 7 m/s 754 mmHg 91%
14:00 +16°C° 0.1 mm 7 m/s 755 mmHg 88%
15:00 +16°C° 0.1 mm 7 m/s 755 mmHg 85%
16:00 +16°C° 0.1 mm 7 m/s 755 mmHg 85%
17:00 +15°C° 0.1 mm 6 m/s 756 mmHg 85%
18:00 +15°C° 0.1 mm 6 m/s 756 mmHg 85%
19:00 +13°C° 0 mm 5 m/s 757 mmHg 86%
20:00 +12°C° 0 mm 4 m/s 758 mmHg 87%
21:00 +11°C° 0 mm 4 m/s 758 mmHg 88%
22:00 +10°C° 0 mm 3 m/s 758 mmHg 89%
23:00 +9°C° 0 mm 3 m/s 759 mmHg 90%
Mostrar mais